User: anonymous   Login
Location: Unspecified
(0.0000°N, 0.0000°E)
Time: 06:44:51
(UTC+00:00)
Language:

FALCON 9 R/B - Orbit

View from above orbital plane
View from above orbital plane
View from above satellite
View from above satellite

Ground track
Ground track

The orbit data is extracted from the following two-line orbital elements,

1 39271U 13055G   17087.95395886 +.00011581 +00000-0 +29765-3 0  9990
2 39271 080.9659 081.9418 0639649 079.4714 287.7841 14.35888195181101
Epoch (UTC): 28 March 2017 22:53:42
Eccentricity: 0.0639649
inclination: 80.9659°
perigee height: 315 km
apogee height: 1229 km
right ascension of ascending node: 81.9418°
argument of perigee: 79.4714°
revolutions per day: 14.35888195
mean anomaly at epoch: 287.7841°
orbit number at epoch: 18110

The dashed part of the orbit path shows where the satellite is in the earth's shadow,  

DLR